User: anonymous   Login
Location: Unspecified
(0.0000°N, 0.0000°E)
Time: 08:24:31
(UTC+00:00)
Language:

Explorer 29 - Orbit

View from above orbital plane
View from above orbital plane
View from above satellite
View from above satellite

Ground track
Ground track

The orbit data is extracted from the following two-line orbital elements,

1  1726U 65089A   19345.55537865 -.00000085 +00000-0 -49405-4 0  9991
2  1726 059.3799 338.1503 0720781 104.9508 032.1485 11.97045889364766
Epoch (UTC): 11 December 2019 13:19:44
Eccentricity: 0.0720781
inclination: 59.3799°
perigee height: 1112 km
apogee height: 2276 km
right ascension of ascending node: 338.1503°
argument of perigee: 104.9508°
revolutions per day: 11.97045889
mean anomaly at epoch: 32.1485°
orbit number at epoch: 36476

The dashed part of the orbit path shows where the satellite is in the earth's shadow,  

DLR